SONATE
1 44400U 19038Q   25071.55102231  .00098821  00000-0  10620-2 0  9996
2 44400  97.7064  88.6561 0008372 194.9937 165.1074 15.63397505315549
Taurus 1
1 44530U 19059C   25071.86914825  .00018336  00000-0  35262-2 0  9999
2 44530  98.5940 207.2307 0009269 301.6020  58.4276 14.63637309290951
Duchifat 3
1 44854U 19089C   25071.73252452  .00060412  00000-0  16343-2 0  9999
2 44854  36.9467 196.3593 0005566 170.0096 190.0768 15.36645452289228
TO-108
1 44881U 19093C   25071.84675983  .00002308  00000-0  27471-3 0  9999
2 44881  97.7987 149.3472 0014508 157.9779 202.2063 14.85256584282901
FloripaSat 1
1 44885U 19093G   25071.82976999  .00013998  00000-0  12263-2 0  9991
2 44885  97.8175 159.3444 0011630 142.7309 217.4722 14.96741352283465
RS-44
1 44909U 19096E   25071.58518282  .00000050  00000-0  14972-3 0  9996
2 44909  82.5178 286.4244 0218075 143.4547 218.1662 12.79739048243308
UPMSat 2
1 46276U 20061E   25071.79801055  .00074880  00000-0  10786-2 0  9995
2 46276  97.2566 143.9763 0001511 168.9380 191.1909 15.55777237251601
SALSAT
1 46495U 20068K   25071.45903193  .00014069  00000-0  64360-3 0  9995
2 46495  97.8526  45.5380 0014203 107.5782 252.7005 15.20563019244971
CubeSX-Sirius-HSE
1 47951U 21022V   25071.89321646  .00145726  00000-0  19213-2 0  9990
2 47951  97.4301 340.1926 0003717 231.3857 128.7066 15.57908805219880
CubeSX-HSE
1 47952U 21022W   25071.79992895  .00134269  00000-0  17347-2 0  9996
2 47952  97.4305 340.2960 0003953 219.7526 140.3441 15.58490310219884
KSU-Cubesat
1 47954U 21022Y   25071.82652556  .00886231  34630-3  23798-2 0  9998
2 47954  97.4212 345.4279 0006661 150.7554 209.4095 15.94427609219936
GRBAlpha
1 47959U 21022AD  25071.82917537  .00144646  00000-0  18812-2 0  9995
2 47959  97.4290 340.4741 0003793 229.0249 131.0679 15.58277867218712
Orbicraft-Zorkiy
1 47960U 21022AE  25071.74201836  .00327149  00000-0  22159-2 0  9996
2 47960  97.4267 343.9724 0004067 162.9904 197.1497 15.74057759219597
TUBIN
1 48900U 21059X   25071.84856400  .00066101  00000-0  11537-2 0  9991
2 48900  97.6685 234.5306 0004886 211.1704 148.9257 15.50461962206248
LEDSAT
1 49069U 21073D   25071.85838465  .00075543  00000-0  14552-2 0  9996
2 49069  97.3988 150.5073 0011255  46.1993 314.0186 15.47540761197652
CUTE
1 49263U 21088D   25071.17372813  .00022110  00000-0  50878-3 0  9997
2 49263  97.4600 145.0729 0009340 199.5096 160.5795 15.42608824190626
TeikyoSat 4
1 49396U 21102B   25071.59923010  .00004589  00000-0  30989-3 0  9999
2 49396  97.4228 113.2126 0014125  80.6103 279.6721 15.06989522183140
Z-Sat
1 49399U 21102E   25071.85144805  .00009006  00000-0  50877-3 0  9995
2 49399  97.3936 116.0349 0019783  55.4993 304.8103 15.13165653183557
KOSEN 1
1 49402U 21102H   25071.70278314  .00011664  00000-0  56863-3 0  9991
2 49402  97.3843 118.6729 0017088  35.4107 324.8258 15.18348482183797
HO-113
1 50466U 21131B   25071.86607989  .00001314  00000-0  42585-3 0  9993
2 50466  98.5100 161.6744 0004827  54.7881 305.3759 14.40607305168679
IRIS-A
1 51044U 22002BN  25071.44331352  .00131102  00000-0  14118-2 0  9995
2 51044  97.3388 147.3209 0003922 163.2757 196.8632 15.63270812175819
Foresail-1
1 52766U 22057AL  25071.86972745  .00131170  00000-0  14637-2 0  9991
2 52766  97.6000 215.1995 0007060 245.8678 114.1842 15.62332546155914
SNUGLITE 2
1 52899U 22065F   25071.85529670  .00002998  00000-0  59674-3 0  9997
2 52899  98.1523 214.7857 0007991  39.5069 320.6714 14.62777835143512
IO-117
1 53106U 22080B   25051.21822557 -.00000003  00000-0  00000+0 0  9995
2 53106  70.1434 106.3440 0008542  48.0089 312.1297  6.42557744 61200
UmKA 1 (RS40S)
1 57172U 23091G   25071.88462551  .00012264  00000-0  68365-3 0  9997
2 57172  97.5714 127.7647 0013422 280.7796  79.1924 15.13659085 94055
CubeBel-2 (EU11S)
1 57175U 23091K   25071.85680507  .00018112  00000-0  92562-3 0  9994
2 57175  97.5710 128.4041 0011506 290.8476  69.1524 15.16671989 94097
VERONIKA
1 58261U 23174F   25071.83396240  .00106080  00000-0  19615-2 0  9998
2 58261  97.4236 154.1620 0005710 358.3801   1.7430 15.48650056 74854
KAFASAT
1 58317U 23174BP  25071.77680866  .00452519  00000-0  25791-2 0  9996
2 58317  97.4082 158.2738 0006917 283.3812  76.6683 15.77680303 75143
ENSO
1 58470U 23185J   25071.84033922  .00069100  00000-0  14782-2 0  9999
2 58470  97.3846 144.7847 0007693  47.0170 313.1722 15.44536604 71287
EIRSAT-1
1 58472U 23185L   25071.85041313  .00096895  00000-0  17463-2 0  9995
2 58472  97.3838 145.6447 0006239  45.8713 314.3050 15.49417690 71342
SONATE-2
1 59112U 24043Q   25071.31597584  .00028631  00000-0  94696-3 0  9995
2 59112  97.4995 201.0401 0011986  74.0455 286.2106 15.31238328 56654
MO-122
1 60209U 24125G   25071.54353174  .00027856  00000-0  90790-3 0  9994
2 60209  97.2916 284.3441 0021973  96.2165 264.1580 15.31546419 38309
GRBBeta
1 60237U 24128C   25071.60093723  .00010011  00000-0  77366-3 0  9995
2 60237  61.9936  29.5412 0043723  37.6485 322.7652 15.01283610 36833
Curium One
1 60242U 24128H   25071.23044759  .00016701  00000-0  12269-2 0  9997
2 60242  61.9833  30.2495 0043902  32.8060 327.5742 15.02832754 36798
ROBUSTA-3A
1 60243U 24128J   25071.60757685  .00017010  00000-0  12638-2 0  9992
2 60243  61.9905  29.4880 0042178  30.7797 329.5754 15.02456545 36846
CatSat
1 60246U 24125J   25071.57193600  .00014993  00000-0  53668-3 0  9995
2 60246  97.2703 284.4916 0046091  52.4333 308.1079 15.27835397 36380
HYPERVIEW-1G (RS66S)
1 61772U 24199AP  25071.91989957  .00037480  00000-0  12721-2 0  9997
2 61772  97.3691 301.1767 0015903 144.9874 215.2415 15.30290213 63375
AO-123
1 61781U 24199AY  25071.88590109  .00014762  00000-0  56655-3 0  9993
2 61781  97.3698 300.7800 0017318 147.0515 213.1807 15.26428967 63346
ZIMSAT 2
1 61783U 24199BA  25071.86147606  .00054979  00000-0  17397-2 0  9996
2 61783  97.3685 301.2481 0016756 144.5763 215.6595 15.32440674 66527
POEM 4 (BGS ARPIT)
1 62461U 24253C   25071.75893109  .00330457  53355-4  87749-3 0  9997
2 62461  55.2138 270.8316 0005176 131.7018 228.4481 15.94171406 11382
HADES-R (SO-124)
1 62690U 25009CK  25071.19677963  .00047321  00000-0  21648-2 0  9992
2 62690  97.4170 152.8416 0002160  65.2240 294.9220 15.20364471  8524
